Cloud_Cover
99 83 100 100 19 5 4 5 1 0 5 0 0 0 0 1 0 4 7 8 4 95 100 100 78 9 23 5 3 0 2 0 1 6 5 6 5 3 5 1 17 100 100 98 98 100 100 100 97 100 100 100 100 95
100 100 94 100 97 16 5 5 5 0 4 5 0 4 5 13 5 8 5 39 100 69 23 5 5 0 0 0 0 0 0 0 0 5 6 5 5 5 1 5 5 96 100 100 98 86 99 100 100 100 100 100 100 94
100 100 98 39 80 5 5 6 5 4 0 3 5 4 0 1 0 5 2 3 0 0 0 0 0 0 0 0 0 0 0 0 0 0 0 4 5 5 5 3 2 48 100 100 61 96 87 67 91 77 100 100 100 100
100 100 91 85 97 40 5 11 40 6 5 5 3 5 2 5 5 5 1 1 0 0 3 0 0 0 0 0 0 0 0 0 0 1 0 5 5 6 5 47 10 85 100 100 98 99 97 98 68 74 100 100 100 100
100 100 100 87 59 12 87 100 64 68 7 27 11 5 4 5 5 5 5 5 2 0 0 0 0 0 0 0 0 0 0 0 0 5 5 5 27 62 6 100 100 100 100 100 100 100 87 58 54 99 100 100 100 100
100 100 100 100 100 99 100 100 100 98 81 53 5 5 5 5 5 24 5 5 5 5 0 1 0 0 2 0 0 5 5 1 3 1 4 5 5 39 95 83 92 100 100 100 100 100 100 82 97 100 100 100 100 100
100 100 100 100 100 100 100 100 100 100 100 100 37 22 33 56 36 27 5 5 5 5 5 5 2 0 2 5 5 5 4 2 0 5 5 5 65 95 98 100 100 100 100 100 100 100 100 100 97 100 100 100 100 100
100 100 100 100 100 100 100 100 100 100 100 100 100 86 89 51 63 68 23 5 5 5 5 5 4 4 0 4 5 5 5 4 5 5 5 25 81 100 100 100 100 100 100 100 100 100 100 100 100 98 100 100 100 100
100 100 100 100 100 100 100 100 100 100 100 100 100 100 91 86 46 25 5 5 5 5 5 5 5 7 2 5 5 4 5 5 5 7 17 77 80 100 100 100 100 100 100 100 100 100 100 100 100 100 100 100 100 100
100 100 100 100 100 100 100 100 100 100 100 100 100 100 83 83 28 49 6 5 5 5 5 5 5 2 4 5 5 5 5 5 6 22 53 97 99 99 100 100 100 100 100 100 100 100 100 100 100 100 100 100 69 100
100 100 100 100 100 100 100 100 100 100 100 100 98 100 100 72 11 62 40 6 5 5 5 5 5 5 2 0 1 5 4 5 5 32 5 31 79 93 97 100 100 100 100 100 100 100 100 100 100 100 100 100 96 88
100 100 100 100 100 100 100 100 100 100 100 98 100 100 100 100 100 100 83 50 18 5 5 5 4 0 0 0 0 0 4 4 5 7 5 5 8 100 79 100 100 100 100 100 95 100 100 100 100 100 100 100 100 100
100 100 100 100 100 100 100 100 100 100 100 94 87 91 95 100 100 80 100 89 5 5 5 0 0 3 0 0 2 4 1 4 5 9 81 16 5 99 100 100 100 100 100 100 100 100 100 100 100 100 100 100 100 100
100 100 100 100 100 100 100 100 100 100 100 100 100 100 19 40 91 100 95 24 5 5 5 5 2 4 5 0 2 1 0 5 10 68 5 5 5 32 94 100 100 100 100 100 100 100 100 100 100 100 100 100 100 100
100 100 100 100 100 100 100 100 100 100 100 100 100 27 5 5 14 5 5 5 4 3 1 0 0 2 1 0 2 2 1 3 5 4 3 0 4 58 52 100 100 100 100 100 100 100 100 100 100 100 100 100 100 100
100 100 100 100 100 100 100 100 100 100 100 100 100 59 51 5 62 5 5 3 1 0 0 1 4 4 0 4 5 0 4 5 5 5 4 2 4 38 82 100 100 100 100 100 100 100 100 100 100 100 100 100 100 100
100 100 100 100 100 100 100 100 100 100 100 100 100 91 99 48 5 5 5 3 1 2 4 0 0 0 18 5 5 69 98 52 36 82 5 5 5 32 97 100 100 100 100 100 100 100 100 100 100 100 100 100 100 100
100 100 100 100 100 100 100 100 100 100 100 100 100 100 100 46 9 5 5 0 1 2 0 0 0 4 5 5 59 44 5 14 6 5 11 95 100 82 99 100 100 100 100 100 100 100 100 100 100 100 100 100 100 100
100 100 100 100 100 100 100 100 100 100 100 100 100 100 91 10 5 5 5 4 3 0 1 0 0 0 0 0 48 5 5 5 3 2 4 5 5 5 26 100 100 100 100 100 100 100 100 100 100 100 100 100 100 100
100 100 100 100 100 100 100 100 100 100 100 100 100 84 46 12 2 1 2 0 0 0 0 0 0 0 0 0 0 0 4 5 2 2 0 0 1 2 41 93 100 100 100 100 100 100 100 100 100 100 100 100 100 100
100 100 100 100 100 100 100 100 100 100 100 100 100 100 100 45 5 5 6 22 5 0 0 0 0 0 0 0 4 5 5 0 5 60 5 0 0 0 0 2 100 100 100 100 100 100 100 100 100 100 100 100 100 100
100 100 100 100 100 100 100 100 100 100 100 100 100 96 96 84 52 51 62 77 5 5 0 0 4 5 28 52 6 1 2 23 100 60 28 4 0 0 0 0 85 100 100 100 100 100 100 100 100 100 100 100 100 100
100 100 100 100 100 66 26 48 91 100 100 100 100 100 93 15 5 5 7 44 8 16 18 14 24 18 7 5 6 66 67 99 100 84 43 10 2 0 0 0 0 95 100 99 99 100 100 100 100 100 100 99 100 100
100 100 100 100 68 100 79 98 22 5 27 34 20 5 4 2 0 4 99 65 23 100 96 100 100 100 98 10 75 100 100 100 100 100 100 96 35 0 0 0 0 90 100 100 100 100 100 100 100 100 100 100 100 100
100 100 63 100 59 100 96 67 9 5 5 5 5 5 5 5 2 35 38 7 100 100 100 100 100 100 90 100 100 100 92 28 23 36 49 94 38 3 0 0 0 0 24 97 100 100 100 100 100 100 100 100 100 100
100 98 100 72 88 16 56 65 7 6 5 5 5 2 1 4 2 14 37 98 100 100 100 100 92 100 100 100 100 100 54 5 5 5 8 3 1 0 0 0 0 0 1 5 84 100 100 100 100 100 100 100 100 100
100 98 92 9 32 5 6 6 21 5 5 5 5 5 4 0 5 14 5 61 100 100 100 100 100 100 100 100 50 5 5 3 1 0 0 0 0 0 0 0 0 0 0 0 0 7 96 100 100 100 100 100 100 100
100 100 100 100 87 41 22 5 5 31 64 5 5 3 0 39 100 100 77 94 32 99 100 100 100 100 100 13 0 0 0 0 0 0 0 0 0 0 0 0 0 0 1 0 9 100 98 100 100 100 100 100 100 100
100 93 100 100 100 100 51 5 39 100 68 10 9 5 4 66 96 25 2 4 65 100 100 100 100 94 15 1 2 0 0 0 0 0 0 0 0 0 0 0 0 0 21 92 100 100 100 100 100 100 100 100 100 100
100 100 100 100 100 25 34 99 100 100 99 10 5 2 0 7 92 27 5 7 99 100 100 100 98 48 5 15 11 5 4 0 0 0 0 0 0 0 0 0 33 51 100 100 100 100 100 99 100 100 100 100 100 100
99 100 100 81 74 100 100 100 88 96 75 13 59 1 2 8 5 6 6 80 100 100 100 100 67 63 88 73 5 4 0 18 0 0 0 0 0 4 20 64 89 99 100 100 100 100 100 100 100 100 100 100 100 100
100 100 100 100 100 100 100 100 100 100 100 6 22 84 79 9 11 6 5 34 92 100 100 69 86 100 100 100 30 0 10 3 10 26 22 7 10 68 99 100 100 100 100 100 100 100 100 100 89 91 100 100 100 100
100 70 100 100 100 99 93 99 100 100 65 67 21 6 5 15 87 90 100 100 100 100 100 100 95 73 100 92 87 85 100 100 91 44 40 47 93 100 100 100 100 100 100 100 100 100 100 100 100 100 100 100 100 100